Clermont County, Batavia, OH

1:26 PM EDT on October 20, 2019 (GMT -0400)
Clermont County, Batavia

Weather History for KI69 - September, 2019

Change the Weather History Date:

Saturday, September 21, 2019

  Actual Average (WUND) Record (WUND)
Temperature  
Mean Temperature 78 °F -  
Max Temperature 88 °F - - (-1)
Min Temperature 68 °F - - (-1)
Cooling Degree Days 14    
Growing Degree Days 28 (Base 50)    
Moisture  
Dew Point 65 °F    
Average Humidity 68    
Maximum Humidity 86    
Minimum Humidity 42    
Precipitation  
Precipitation 0.00 in - - ()
Sea Level Pressure  
Sea Level Pressure 30.22 in    
Wind  
Wind Speed 5 mph (SW)    
Max Wind Speed 13 mph    
Max Gust Speed 17 mph    
Visibility 10 miles    
Events      
Averages and records for this station are not official NWS values.
T = Trace of Precipitation, MM = Missing Value Source: NWS Daily Summary

Daily Weather History Graph

Daily Weather History Graph

Search for Another Location

Airport or City:

Astronomy

Sep. 21, 2019 Rise Set
Actual Time 7:23 AM EDT 7:35 PM EDT
Civil Twilight 6:56 AM EDT 8:02 PM EDT
Nautical Twilight 6:25 AM EDT 8:33 PM EDT
Astronomical Twilight 5:53 AM EDT 9:05 PM EDT
Moon No Moon Rise 2:25 PM EDT (9/21)
Length of Visible Light 13h 05m
Length of Day
12h 12m
Waning Gibbous, 55% of the Moon is Illuminated
Sep 21
Waning Gibbous
Sep 21
Last Quarter
Sep 28
New
Oct 5
First Quarter
Oct 13
Full

Hourly Weather History & Observations

Time (EDT) Temp. Heat Index Dew Point Humidity Pressure Visibility Wind Dir Wind Speed Gust Speed Precip Events Conditions
12:15 AM 73.6 °F - 67.1 °F 80% 30.21 in 10.0 mi SSW 4.6 mph - N/A   Scattered Clouds
12:35 AM 73.6 °F - 67.1 °F 80% 30.21 in 10.0 mi SSW 4.6 mph - N/A   Clear
12:55 AM 73.2 °F - 67.1 °F 81% 30.21 in 10.0 mi SSW 4.6 mph - N/A   Clear
1:19 AM 72.7 °F - 66.7 °F 82% 30.21 in 10.0 mi SSW 4.6 mph - N/A   Clear
1:37 AM 72.7 °F - 66.6 °F 81% 30.21 in 10.0 mi SW 4.6 mph - N/A   Clear
1:55 AM 72.7 °F - 66.4 °F 81% 30.21 in 10.0 mi SW 4.6 mph - N/A   Clear
2:15 AM 72.3 °F - 66.2 °F 81% 30.21 in 10.0 mi SW 5.8 mph - N/A   Clear
2:35 AM 72.1 °F - 66.2 °F 82% 30.21 in 10.0 mi SW 4.6 mph - N/A   Clear
2:59 AM 71.8 °F - 66.2 °F 83% 30.21 in 10.0 mi Calm Calm - N/A   Clear
3:35 AM 71.1 °F - 65.8 °F 84% 30.21 in 10.0 mi SW 3.5 mph - N/A   Clear
3:55 AM 70.7 °F - 65.7 °F 84% 30.21 in 10.0 mi SW 3.5 mph - N/A   Clear
4:15 AM 70.7 °F - 65.5 °F 83% 30.21 in 10.0 mi SW 4.6 mph - N/A   Clear
4:38 AM 70.7 °F - 65.3 °F 83% 30.21 in 10.0 mi SW 5.8 mph - N/A   Clear
4:57 AM 70.2 °F - 65.3 °F 85% 30.22 in 10.0 mi WSW 4.6 mph - N/A   Clear
5:15 AM 70.2 °F - 65.3 °F 85% 30.22 in 10.0 mi SW 3.5 mph - N/A   Scattered Clouds
5:35 AM 70.2 °F - 65.3 °F 85% 30.23 in 10.0 mi SW 4.6 mph - N/A   Mostly Cloudy
5:55 AM 70.7 °F - 64.9 °F 82% 30.23 in 10.0 mi SW 4.6 mph - N/A   Overcast
6:18 AM 70.2 °F - 64.8 °F 83% 30.23 in 10.0 mi SW 5.8 mph - N/A   Mostly Cloudy
6:36 AM 70.2 °F - 64.8 °F 83% 30.24 in 10.0 mi SW 5.8 mph - N/A   Mostly Cloudy
6:55 AM 70.3 °F - 65.1 °F 83% 30.25 in 10.0 mi WSW 4.6 mph - N/A   Overcast
7:15 AM 70.9 °F - 64.8 °F 81% 30.25 in 10.0 mi SW 5.8 mph - N/A   Overcast
7:35 AM 70.7 °F - 64.4 °F 80% 30.25 in 10.0 mi SW 4.6 mph - N/A   Mostly Cloudy
7:58 AM 70.3 °F - 64.4 °F 81% 30.25 in 10.0 mi SW 3.5 mph - N/A   Mostly Cloudy
8:16 AM 70.0 °F - 64.4 °F 82% 30.26 in 10.0 mi SSW 3.5 mph - N/A   Mostly Cloudy
8:36 AM 69.8 °F - 64.4 °F 83% 30.26 in 10.0 mi Calm Calm - N/A   Mostly Cloudy
8:55 AM 69.6 °F - 65.1 °F 86% 30.26 in 10.0 mi Calm Calm - N/A   Scattered Clouds
9:15 AM 71.8 °F - 65.7 °F 81% 30.27 in 10.0 mi Calm Calm - N/A   Clear
9:38 AM 73.8 °F - 64.9 °F 74% 30.27 in 10.0 mi SW 5.8 mph - N/A   Clear
9:56 AM 74.8 °F - 64.9 °F 71% 30.27 in 10.0 mi WSW 3.5 mph - N/A   Clear
10:15 AM 76.3 °F - 64.8 °F 67% 30.28 in 10.0 mi SW 5.8 mph - N/A   Clear
10:36 AM 77.5 °F - 65.3 °F 66% 30.28 in 10.0 mi WSW 5.8 mph - N/A   Clear
10:55 AM 77.9 °F - 65.3 °F 65% 30.28 in 10.0 mi SW 3.5 mph - N/A   Scattered Clouds
11:18 AM 79.3 °F - 65.5 °F 62% 30.28 in 10.0 mi SW 4.6 mph - N/A   Scattered Clouds
11:36 AM 80.1 °F 82.2 °F 66.6 °F 63% 30.28 in 10.0 mi SW 6.9 mph - N/A   Scattered Clouds
11:55 AM 81.0 °F 83.2 °F 66.4 °F 61% 30.28 in 10.0 mi SW 6.9 mph - N/A   Scattered Clouds
12:15 PM 81.9 °F 84.2 °F 66.6 °F 60% 30.27 in 10.0 mi SW 5.8 mph - N/A   Clear
12:35 PM 83.1 °F 85.4 °F 66.4 °F 57% 30.26 in 10.0 mi SW 5.8 mph - N/A   Mostly Cloudy
12:58 PM 84.0 °F 86.3 °F 66.0 °F 55% 30.26 in 10.0 mi WSW 10.4 mph - N/A   Mostly Cloudy
1:16 PM 84.6 °F 86.6 °F 65.8 °F 53% 30.25 in 10.0 mi WSW 6.9 mph - N/A   Scattered Clouds
1:35 PM 85.3 °F 87.1 °F 65.5 °F 51% 30.24 in 10.0 mi West 10.4 mph 16.1 mph N/A   Scattered Clouds
1:55 PM 85.6 °F 87.4 °F 65.1 °F 50% 30.24 in 10.0 mi SW 9.2 mph - N/A   Scattered Clouds
2:19 PM 86.2 °F 87.6 °F 64.2 °F 48% 30.23 in 10.0 mi WSW 12.7 mph - N/A   Clear
2:38 PM 87.3 °F 88.6 °F 64.4 °F 46% 30.22 in 10.0 mi SW 5.8 mph - N/A   Scattered Clouds
2:56 PM 87.8 °F 89.1 °F 64.2 °F 45% 30.22 in 10.0 mi SW 6.9 mph - N/A   Scattered Clouds
3:15 PM 87.6 °F 88.8 °F 63.9 °F 45% 30.21 in 10.0 mi WSW 8.1 mph - N/A   Scattered Clouds
3:35 PM 87.3 °F 88.3 °F 63.5 °F 45% 30.21 in 10.0 mi SW 8.1 mph 16.1 mph N/A   Clear
3:59 PM 87.6 °F 88.5 °F 63.1 °F 44% 30.20 in 10.0 mi SW 9.2 mph - N/A   Scattered Clouds
4:17 PM 87.3 °F 88.0 °F 62.6 °F 44% 30.19 in 10.0 mi WSW 6.9 mph 17.3 mph N/A   Clear
4:36 PM 88.2 °F 89.0 °F 63.0 °F 43% 30.19 in 10.0 mi WSW 8.1 mph - N/A   Scattered Clouds
4:55 PM 87.4 °F 87.7 °F 61.7 °F 42% 30.18 in 10.0 mi WSW 6.9 mph - N/A   Scattered Clouds
5:15 PM 87.8 °F 88.2 °F 62.1 °F 42% 30.18 in 10.0 mi SW 6.9 mph - N/A   Clear
5:39 PM 87.4 °F 87.7 °F 61.7 °F 42% 30.18 in 10.0 mi SW 6.9 mph - N/A   Clear
5:57 PM 86.9 °F 87.0 °F 61.5 °F 42% 30.18 in 10.0 mi SW 8.1 mph - N/A   Clear
6:16 PM 86.4 °F 86.5 °F 61.7 °F 43% 30.18 in 10.0 mi WSW 5.8 mph - N/A   Clear
6:35 PM 85.6 °F 86.1 °F 61.9 °F 45% 30.17 in 10.0 mi SSW 6.9 mph - N/A   Clear
6:55 PM 84.9 °F 85.4 °F 61.9 °F 46% 30.17 in 10.0 mi SW 5.8 mph - N/A   Clear
7:19 PM 83.8 °F 84.3 °F 61.7 °F 47% 30.17 in 10.0 mi SW 3.5 mph - N/A   Clear
7:37 PM 81.9 °F 82.9 °F 62.6 °F 52% 30.17 in 10.0 mi Calm Calm - N/A   Clear
7:55 PM 81.0 °F 82.2 °F 62.8 °F 54% 30.18 in 10.0 mi Calm Calm - N/A   Clear
8:15 PM 78.3 °F - 63.9 °F 61% 30.18 in 10.0 mi Calm Calm - N/A   Clear
8:59 PM 74.3 °F - 64.6 °F 72% 30.18 in 10.0 mi Calm Calm - N/A   Clear
9:17 PM 74.5 °F - 63.5 °F 68% 30.18 in 10.0 mi Calm Calm - N/A   Clear
9:35 PM 73.9 °F - 64.4 °F 72% 30.19 in 10.0 mi Calm Calm - N/A   Clear
9:55 PM 72.5 °F - 64.6 °F 76% 30.19 in 10.0 mi Calm Calm - N/A   Clear
10:15 PM 71.1 °F - 64.2 °F 79% 30.19 in 10.0 mi Calm Calm - N/A   Clear
10:39 PM 71.1 °F - 64.4 °F 79% 30.19 in 10.0 mi Calm Calm - N/A   Clear
10:57 PM 71.2 °F - 64.2 °F 78% 30.19 in 10.0 mi Calm Calm - N/A   Clear
11:15 PM 69.4 °F - 64.4 °F 84% 30.18 in 10.0 mi Calm Calm - N/A   Clear
11:35 PM 69.1 °F - 64.2 °F 84% 30.18 in 10.0 mi Calm Calm - N/A   Clear
11:55 PM 68.9 °F - 64.0 °F 84% 30.18 in 10.0 mi Calm Calm - N/A   Clear